Index of /20260425/WXO-DD/model_rdps/10km/06/023
Name Last modified Size Description
Parent Directory -
20260425T06Z_MSC_RDPS_AbsoluteVorticity_IsbL-0250_RLatLon0.09_PT023H.grib2 2026-04-25 08:47 621K
20260425T06Z_MSC_RDPS_AbsoluteVorticity_IsbL-0500_RLatLon0.09_PT023H.grib2 2026-04-25 08:47 568K
20260425T06Z_MSC_RDPS_AbsoluteVorticity_IsbL-0700_RLatLon0.09_PT023H.grib2 2026-04-25 08:47 629K
20260425T06Z_MSC_RDPS_AbsoluteVorticity_IsbL-0850_RLatLon0.09_PT023H.grib2 2026-04-25 08:47 785K
20260425T06Z_MSC_RDPS_AirTemp_AGL-120m_RLatLon0.09_PT023H.grib2 2026-04-25 08:47 387K
20260425T06Z_MSC_RDPS_AirTemp_AGL-2m_RLatLon0.09_PT023H.grib2 2026-04-25 08:47 620K
20260425T06Z_MSC_RDPS_AirTemp_AGL-40m_RLatLon0.09_PT023H.grib2 2026-04-25 08:47 400K
20260425T06Z_MSC_RDPS_AirTemp_AGL-80m_RLatLon0.09_PT023H.grib2 2026-04-25 08:47 392K
20260425T06Z_MSC_RDPS_AirTemp_IsbL-0001_RLatLon0.09_PT023H.grib2 2026-04-25 08:47 296K
20260425T06Z_MSC_RDPS_AirTemp_IsbL-0005_RLatLon0.09_PT023H.grib2 2026-04-25 08:47 295K
20260425T06Z_MSC_RDPS_AirTemp_IsbL-0010_RLatLon0.09_PT023H.grib2 2026-04-25 08:47 314K
20260425T06Z_MSC_RDPS_AirTemp_IsbL-0020_RLatLon0.09_PT023H.grib2 2026-04-25 08:47 332K
20260425T06Z_MSC_RDPS_AirTemp_IsbL-0030_RLatLon0.09_PT023H.grib2 2026-04-25 08:47 352K
20260425T06Z_MSC_RDPS_AirTemp_IsbL-0050_RLatLon0.09_PT023H.grib2 2026-04-25 08:47 327K
20260425T06Z_MSC_RDPS_AirTemp_IsbL-0100_RLatLon0.09_PT023H.grib2 2026-04-25 08:47 428K
20260425T06Z_MSC_RDPS_AirTemp_IsbL-0150_RLatLon0.09_PT023H.grib2 2026-04-25 08:47 426K
20260425T06Z_MSC_RDPS_AirTemp_IsbL-0175_RLatLon0.09_PT023H.grib2 2026-04-25 08:47 419K
20260425T06Z_MSC_RDPS_AirTemp_IsbL-0200_RLatLon0.09_PT023H.grib2 2026-04-25 08:47 423K
20260425T06Z_MSC_RDPS_AirTemp_IsbL-0225_RLatLon0.09_PT023H.grib2 2026-04-25 08:47 423K
20260425T06Z_MSC_RDPS_AirTemp_IsbL-0250_RLatLon0.09_PT023H.grib2 2026-04-25 08:47 432K
20260425T06Z_MSC_RDPS_AirTemp_IsbL-0275_RLatLon0.09_PT023H.grib2 2026-04-25 08:47 411K
20260425T06Z_MSC_RDPS_AirTemp_IsbL-0300_RLatLon0.09_PT023H.grib2 2026-04-25 08:47 418K
20260425T06Z_MSC_RDPS_AirTemp_IsbL-0350_RLatLon0.09_PT023H.grib2 2026-04-25 08:47 429K
20260425T06Z_MSC_RDPS_AirTemp_IsbL-0400_RLatLon0.09_PT023H.grib2 2026-04-25 08:47 429K
20260425T06Z_MSC_RDPS_AirTemp_IsbL-0450_RLatLon0.09_PT023H.grib2 2026-04-25 08:47 401K
20260425T06Z_MSC_RDPS_AirTemp_IsbL-0500_RLatLon0.09_PT023H.grib2 2026-04-25 08:47 415K
20260425T06Z_MSC_RDPS_AirTemp_IsbL-0550_RLatLon0.09_PT023H.grib2 2026-04-25 08:47 435K
20260425T06Z_MSC_RDPS_AirTemp_IsbL-0600_RLatLon0.09_PT023H.grib2 2026-04-25 08:47 451K
20260425T06Z_MSC_RDPS_AirTemp_IsbL-0650_RLatLon0.09_PT023H.grib2 2026-04-25 08:47 465K
20260425T06Z_MSC_RDPS_AirTemp_IsbL-0700_RLatLon0.09_PT023H.grib2 2026-04-25 08:47 488K
20260425T06Z_MSC_RDPS_AirTemp_IsbL-0750_RLatLon0.09_PT023H.grib2 2026-04-25 08:47 413K
20260425T06Z_MSC_RDPS_AirTemp_IsbL-0800_RLatLon0.09_PT023H.grib2 2026-04-25 08:47 456K
20260425T06Z_MSC_RDPS_AirTemp_IsbL-0850_RLatLon0.09_PT023H.grib2 2026-04-25 08:47 500K
20260425T06Z_MSC_RDPS_AirTemp_IsbL-0875_RLatLon0.09_PT023H.grib2 2026-04-25 08:47 515K
20260425T06Z_MSC_RDPS_AirTemp_IsbL-0900_RLatLon0.09_PT023H.grib2 2026-04-25 08:47 522K
20260425T06Z_MSC_RDPS_AirTemp_IsbL-0925_RLatLon0.09_PT023H.grib2 2026-04-25 08:47 519K
20260425T06Z_MSC_RDPS_AirTemp_IsbL-0950_RLatLon0.09_PT023H.grib2 2026-04-25 08:47 526K
20260425T06Z_MSC_RDPS_AirTemp_IsbL-0970_RLatLon0.09_PT023H.grib2 2026-04-25 08:47 522K
20260425T06Z_MSC_RDPS_AirTemp_IsbL-0985_RLatLon0.09_PT023H.grib2 2026-04-25 08:47 512K
20260425T06Z_MSC_RDPS_AirTemp_IsbL-1000_RLatLon0.09_PT023H.grib2 2026-04-25 08:47 483K
20260425T06Z_MSC_RDPS_AirTemp_IsbL-1015_RLatLon0.09_PT023H.grib2 2026-04-25 08:47 491K
20260425T06Z_MSC_RDPS_Albedo_Sfc_RLatLon0.09_PT023H.grib2 2026-04-25 08:47 163K
20260425T06Z_MSC_RDPS_CAPE_Sfc_RLatLon0.09_PT023H.grib2 2026-04-25 08:47 1.7M
20260425T06Z_MSC_RDPS_CIN_Sfc_RLatLon0.09_PT023H.grib2 2026-04-25 08:47 1.2M
20260425T06Z_MSC_RDPS_CloudWater_EAtm_RLatLon0.09_PT023H.grib2 2026-04-25 08:47 219K
20260425T06Z_MSC_RDPS_ConvectivePrecip-Accum_Sfc_RLatLon0.09_PT023H.grib2 2026-04-25 08:47 856K
20260425T06Z_MSC_RDPS_DewPointDepression_AGL-2m_RLatLon0.09_PT023H.grib2 2026-04-25 08:47 384K
20260425T06Z_MSC_RDPS_DewPointDepression_IsbL-0001_RLatLon0.09_PT023H.grib2 2026-04-25 08:47 193
20260425T06Z_MSC_RDPS_DewPointDepression_IsbL-0005_RLatLon0.09_PT023H.grib2 2026-04-25 08:47 193
20260425T06Z_MSC_RDPS_DewPointDepression_IsbL-0010_RLatLon0.09_PT023H.grib2 2026-04-25 08:47 193
20260425T06Z_MSC_RDPS_DewPointDepression_IsbL-0020_RLatLon0.09_PT023H.grib2 2026-04-25 08:47 193
20260425T06Z_MSC_RDPS_DewPointDepression_IsbL-0030_RLatLon0.09_PT023H.grib2 2026-04-25 08:47 193
20260425T06Z_MSC_RDPS_DewPointDepression_IsbL-0050_RLatLon0.09_PT023H.grib2 2026-04-25 08:47 92K
20260425T06Z_MSC_RDPS_DewPointDepression_IsbL-0100_RLatLon0.09_PT023H.grib2 2026-04-25 08:47 131K
20260425T06Z_MSC_RDPS_DewPointDepression_IsbL-0150_RLatLon0.09_PT023H.grib2 2026-04-25 08:47 153K
20260425T06Z_MSC_RDPS_DewPointDepression_IsbL-0175_RLatLon0.09_PT023H.grib2 2026-04-25 08:47 191K
20260425T06Z_MSC_RDPS_DewPointDepression_IsbL-0200_RLatLon0.09_PT023H.grib2 2026-04-25 08:47 219K
20260425T06Z_MSC_RDPS_DewPointDepression_IsbL-0225_RLatLon0.09_PT023H.grib2 2026-04-25 08:47 258K
20260425T06Z_MSC_RDPS_DewPointDepression_IsbL-0250_RLatLon0.09_PT023H.grib2 2026-04-25 08:47 301K
20260425T06Z_MSC_RDPS_DewPointDepression_IsbL-0275_RLatLon0.09_PT023H.grib2 2026-04-25 08:47 312K
20260425T06Z_MSC_RDPS_DewPointDepression_IsbL-0300_RLatLon0.09_PT023H.grib2 2026-04-25 08:47 333K
20260425T06Z_MSC_RDPS_DewPointDepression_IsbL-0350_RLatLon0.09_PT023H.grib2 2026-04-25 08:47 342K
20260425T06Z_MSC_RDPS_DewPointDepression_IsbL-0400_RLatLon0.09_PT023H.grib2 2026-04-25 08:47 352K
20260425T06Z_MSC_RDPS_DewPointDepression_IsbL-0450_RLatLon0.09_PT023H.grib2 2026-04-25 08:47 359K
20260425T06Z_MSC_RDPS_DewPointDepression_IsbL-0500_RLatLon0.09_PT023H.grib2 2026-04-25 08:47 369K
20260425T06Z_MSC_RDPS_DewPointDepression_IsbL-0550_RLatLon0.09_PT023H.grib2 2026-04-25 08:47 385K
20260425T06Z_MSC_RDPS_DewPointDepression_IsbL-0600_RLatLon0.09_PT023H.grib2 2026-04-25 08:47 392K
20260425T06Z_MSC_RDPS_DewPointDepression_IsbL-0650_RLatLon0.09_PT023H.grib2 2026-04-25 08:47 393K
20260425T06Z_MSC_RDPS_DewPointDepression_IsbL-0700_RLatLon0.09_PT023H.grib2 2026-04-25 08:47 405K
20260425T06Z_MSC_RDPS_DewPointDepression_IsbL-0750_RLatLon0.09_PT023H.grib2 2026-04-25 08:47 423K
20260425T06Z_MSC_RDPS_DewPointDepression_IsbL-0800_RLatLon0.09_PT023H.grib2 2026-04-25 08:47 449K
20260425T06Z_MSC_RDPS_DewPointDepression_IsbL-0850_RLatLon0.09_PT023H.grib2 2026-04-25 08:47 472K
20260425T06Z_MSC_RDPS_DewPointDepression_IsbL-0875_RLatLon0.09_PT023H.grib2 2026-04-25 08:47 472K
20260425T06Z_MSC_RDPS_DewPointDepression_IsbL-0900_RLatLon0.09_PT023H.grib2 2026-04-25 08:47 464K
20260425T06Z_MSC_RDPS_DewPointDepression_IsbL-0925_RLatLon0.09_PT023H.grib2 2026-04-25 08:47 454K
20260425T06Z_MSC_RDPS_DewPointDepression_IsbL-0950_RLatLon0.09_PT023H.grib2 2026-04-25 08:47 442K
20260425T06Z_MSC_RDPS_DewPointDepression_IsbL-0970_RLatLon0.09_PT023H.grib2 2026-04-25 08:47 428K
20260425T06Z_MSC_RDPS_DewPointDepression_IsbL-0985_RLatLon0.09_PT023H.grib2 2026-04-25 08:47 421K
20260425T06Z_MSC_RDPS_DewPointDepression_IsbL-1000_RLatLon0.09_PT023H.grib2 2026-04-25 08:47 414K
20260425T06Z_MSC_RDPS_DewPointDepression_IsbL-1015_RLatLon0.09_PT023H.grib2 2026-04-25 08:47 406K
20260425T06Z_MSC_RDPS_DewPoint_AGL-2m_RLatLon0.09_PT023H.grib2 2026-04-25 08:47 301K
20260425T06Z_MSC_RDPS_DownwardLongwaveRadiationFlux-Accum_Sfc_RLatLon0.09_PT023H.grib2 2026-04-25 08:47 434K
20260425T06Z_MSC_RDPS_DownwardShortwaveRadiationFlux-Accum_NTAtm_RLatLon0.09_PT023H.grib2 2026-04-25 08:47 127K
20260425T06Z_MSC_RDPS_DownwardShortwaveRadiationFlux-Accum_Sfc_RLatLon0.09_PT023H.grib2 2026-04-25 08:47 635K
20260425T06Z_MSC_RDPS_FreezingRain-Accum1h_Sfc_RLatLon0.09_PT023H.grib2 2026-04-25 08:47 33K
20260425T06Z_MSC_RDPS_FreezingRain-Accum_Sfc_RLatLon0.09_PT023H.grib2 2026-04-25 08:47 108K
20260425T06Z_MSC_RDPS_GeopotentialHeight_IsbL-0001_RLatLon0.09_PT023H.grib2 2026-04-25 08:47 269K
20260425T06Z_MSC_RDPS_GeopotentialHeight_IsbL-0005_RLatLon0.09_PT023H.grib2 2026-04-25 08:47 337K
20260425T06Z_MSC_RDPS_GeopotentialHeight_IsbL-0010_RLatLon0.09_PT023H.grib2 2026-04-25 08:47 307K
20260425T06Z_MSC_RDPS_GeopotentialHeight_IsbL-0020_RLatLon0.09_PT023H.grib2 2026-04-25 08:47 309K
20260425T06Z_MSC_RDPS_GeopotentialHeight_IsbL-0030_RLatLon0.09_PT023H.grib2 2026-04-25 08:47 407K
20260425T06Z_MSC_RDPS_GeopotentialHeight_IsbL-0050_RLatLon0.09_PT023H.grib2 2026-04-25 08:47 311K
20260425T06Z_MSC_RDPS_GeopotentialHeight_IsbL-0100_RLatLon0.09_PT023H.grib2 2026-04-25 08:47 287K
20260425T06Z_MSC_RDPS_GeopotentialHeight_IsbL-0150_RLatLon0.09_PT023H.grib2 2026-04-25 08:47 228K
20260425T06Z_MSC_RDPS_GeopotentialHeight_IsbL-0175_RLatLon0.09_PT023H.grib2 2026-04-25 08:47 231K
20260425T06Z_MSC_RDPS_GeopotentialHeight_IsbL-0200_RLatLon0.09_PT023H.grib2 2026-04-25 08:47 265K
20260425T06Z_MSC_RDPS_GeopotentialHeight_IsbL-0225_RLatLon0.09_PT023H.grib2 2026-04-25 08:47 267K
20260425T06Z_MSC_RDPS_GeopotentialHeight_IsbL-0250_RLatLon0.09_PT023H.grib2 2026-04-25 08:47 268K
20260425T06Z_MSC_RDPS_GeopotentialHeight_IsbL-0275_RLatLon0.09_PT023H.grib2 2026-04-25 08:47 236K
20260425T06Z_MSC_RDPS_GeopotentialHeight_IsbL-0300_RLatLon0.09_PT023H.grib2 2026-04-25 08:47 235K
20260425T06Z_MSC_RDPS_GeopotentialHeight_IsbL-0350_RLatLon0.09_PT023H.grib2 2026-04-25 08:47 232K
20260425T06Z_MSC_RDPS_GeopotentialHeight_IsbL-0400_RLatLon0.09_PT023H.grib2 2026-04-25 08:47 228K
20260425T06Z_MSC_RDPS_GeopotentialHeight_IsbL-0450_RLatLon0.09_PT023H.grib2 2026-04-25 08:47 297K
20260425T06Z_MSC_RDPS_GeopotentialHeight_IsbL-0500_RLatLon0.09_PT023H.grib2 2026-04-25 08:47 292K
20260425T06Z_MSC_RDPS_GeopotentialHeight_IsbL-0550_RLatLon0.09_PT023H.grib2 2026-04-25 08:47 288K
20260425T06Z_MSC_RDPS_GeopotentialHeight_IsbL-0600_RLatLon0.09_PT023H.grib2 2026-04-25 08:47 285K
20260425T06Z_MSC_RDPS_GeopotentialHeight_IsbL-0650_RLatLon0.09_PT023H.grib2 2026-04-25 08:47 282K
20260425T06Z_MSC_RDPS_GeopotentialHeight_IsbL-0700_RLatLon0.09_PT023H.grib2 2026-04-25 08:47 279K
20260425T06Z_MSC_RDPS_GeopotentialHeight_IsbL-0750_RLatLon0.09_PT023H.grib2 2026-04-25 08:47 279K
20260425T06Z_MSC_RDPS_GeopotentialHeight_IsbL-0800_RLatLon0.09_PT023H.grib2 2026-04-25 08:47 285K
20260425T06Z_MSC_RDPS_GeopotentialHeight_IsbL-0850_RLatLon0.09_PT023H.grib2 2026-04-25 08:47 265K
20260425T06Z_MSC_RDPS_GeopotentialHeight_IsbL-0875_RLatLon0.09_PT023H.grib2 2026-04-25 08:47 268K
20260425T06Z_MSC_RDPS_GeopotentialHeight_IsbL-0900_RLatLon0.09_PT023H.grib2 2026-04-25 08:47 297K
20260425T06Z_MSC_RDPS_GeopotentialHeight_IsbL-0925_RLatLon0.09_PT023H.grib2 2026-04-25 08:47 300K
20260425T06Z_MSC_RDPS_GeopotentialHeight_IsbL-0950_RLatLon0.09_PT023H.grib2 2026-04-25 08:47 304K
20260425T06Z_MSC_RDPS_GeopotentialHeight_IsbL-0970_RLatLon0.09_PT023H.grib2 2026-04-25 08:47 307K
20260425T06Z_MSC_RDPS_GeopotentialHeight_IsbL-0985_RLatLon0.09_PT023H.grib2 2026-04-25 08:47 313K
20260425T06Z_MSC_RDPS_GeopotentialHeight_IsbL-1000_RLatLon0.09_PT023H.grib2 2026-04-25 08:47 321K
20260425T06Z_MSC_RDPS_GeopotentialHeight_IsbL-1015_RLatLon0.09_PT023H.grib2 2026-04-25 08:47 331K
20260425T06Z_MSC_RDPS_Humidex_Sfc_RLatLon0.09_PT023H.grib2 2026-04-25 08:47 2.4M
20260425T06Z_MSC_RDPS_IcePellets-Accum1h_Sfc_RLatLon0.09_PT023H.grib2 2026-04-25 08:47 21K
20260425T06Z_MSC_RDPS_IcePellets-Accum_Sfc_RLatLon0.09_PT023H.grib2 2026-04-25 08:47 48K
20260425T06Z_MSC_RDPS_KIndex_Sfc_RLatLon0.09_PT023H.grib2 2026-04-25 08:47 2.4M
20260425T06Z_MSC_RDPS_LatentHeatNetFlux_Sfc_RLatLon0.09_PT023H.grib2 2026-04-25 08:47 304K
20260425T06Z_MSC_RDPS_LiftedIndex-MU-VT_IsbL-0500_RLatLon0.09_PT023H.grib2 2026-04-25 08:47 2.4M
20260425T06Z_MSC_RDPS_NetLongwaveRadiationFlux-Accum_Sfc_RLatLon0.09_PT023H.grib2 2026-04-25 08:47 573K
20260425T06Z_MSC_RDPS_NetShortwaveRadiationFlux-Accum_Sfc_RLatLon0.09_PT023H.grib2 2026-04-25 08:47 634K
20260425T06Z_MSC_RDPS_PlanetaryBoundaryLayerHeight_Sfc_RLatLon0.09_PT023H.grib2 2026-04-25 08:47 1.1M
20260425T06Z_MSC_RDPS_Precip-Accum1h_Sfc_RLatLon0.09_PT023H.grib2 2026-04-25 08:47 1.3M
20260425T06Z_MSC_RDPS_Precip-Accum_Sfc_RLatLon0.09_PT023H.grib2 2026-04-25 08:47 1.8M
20260425T06Z_MSC_RDPS_PrecipRate_Sfc_RLatLon0.09_PT023H.grib2 2026-04-25 08:47 184K
20260425T06Z_MSC_RDPS_PrecipType-Instant_Sfc_RLatLon0.09_PT023H.grib2 2026-04-25 08:47 591K
20260425T06Z_MSC_RDPS_Pressure-Trend3h_Sfc_RLatLon0.09_PT023H.grib2 2026-04-25 08:47 1.2M
20260425T06Z_MSC_RDPS_Pressure_MSL_RLatLon0.09_PT023H.grib2 2026-04-25 08:47 233K
20260425T06Z_MSC_RDPS_Pressure_PVU-1.5_RLatLon0.09_PT023H.grib2 2026-04-25 08:47 2.5M
20260425T06Z_MSC_RDPS_Pressure_PVU-1_RLatLon0.09_PT023H.grib2 2026-04-25 08:47 2.4M
20260425T06Z_MSC_RDPS_Pressure_PVU-2_RLatLon0.09_PT023H.grib2 2026-04-25 08:47 2.4M
20260425T06Z_MSC_RDPS_Pressure_Sfc_RLatLon0.09_PT023H.grib2 2026-04-25 08:47 497K
20260425T06Z_MSC_RDPS_RadiativeTemp_Sfc_RLatLon0.09_PT023H.grib2 2026-04-25 08:47 298K
20260425T06Z_MSC_RDPS_Rain-Accum1h_Sfc_RLatLon0.09_PT023H.grib2 2026-04-25 08:47 600K
20260425T06Z_MSC_RDPS_Rain-Accum_Sfc_RLatLon0.09_PT023H.grib2 2026-04-25 08:47 1.3M
20260425T06Z_MSC_RDPS_RelativeHumidity_AGL-2m_RLatLon0.09_PT023H.grib2 2026-04-25 08:47 1.0M
20260425T06Z_MSC_RDPS_RelativeHumidity_IsbL-0010_RLatLon0.09_PT023H.grib2 2026-04-25 08:47 637K
20260425T06Z_MSC_RDPS_RelativeHumidity_IsbL-0020_RLatLon0.09_PT023H.grib2 2026-04-25 08:47 662K
20260425T06Z_MSC_RDPS_RelativeHumidity_IsbL-0030_RLatLon0.09_PT023H.grib2 2026-04-25 08:47 551K
20260425T06Z_MSC_RDPS_RelativeHumidity_IsbL-0050_RLatLon0.09_PT023H.grib2 2026-04-25 08:47 383K
20260425T06Z_MSC_RDPS_RelativeHumidity_IsbL-0100_RLatLon0.09_PT023H.grib2 2026-04-25 08:47 280K
20260425T06Z_MSC_RDPS_RelativeHumidity_IsbL-0150_RLatLon0.09_PT023H.grib2 2026-04-25 08:47 415K
20260425T06Z_MSC_RDPS_RelativeHumidity_IsbL-0175_RLatLon0.09_PT023H.grib2 2026-04-25 08:47 488K
20260425T06Z_MSC_RDPS_RelativeHumidity_IsbL-0200_RLatLon0.09_PT023H.grib2 2026-04-25 08:47 561K
20260425T06Z_MSC_RDPS_RelativeHumidity_IsbL-0225_RLatLon0.09_PT023H.grib2 2026-04-25 08:47 633K
20260425T06Z_MSC_RDPS_RelativeHumidity_IsbL-0250_RLatLon0.09_PT023H.grib2 2026-04-25 08:47 707K
20260425T06Z_MSC_RDPS_RelativeHumidity_IsbL-0275_RLatLon0.09_PT023H.grib2 2026-04-25 08:47 735K
20260425T06Z_MSC_RDPS_RelativeHumidity_IsbL-0300_RLatLon0.09_PT023H.grib2 2026-04-25 08:47 782K
20260425T06Z_MSC_RDPS_RelativeHumidity_IsbL-0350_RLatLon0.09_PT023H.grib2 2026-04-25 08:47 805K
20260425T06Z_MSC_RDPS_RelativeHumidity_IsbL-0400_RLatLon0.09_PT023H.grib2 2026-04-25 08:47 817K
20260425T06Z_MSC_RDPS_RelativeHumidity_IsbL-0450_RLatLon0.09_PT023H.grib2 2026-04-25 08:47 819K
20260425T06Z_MSC_RDPS_RelativeHumidity_IsbL-0500_RLatLon0.09_PT023H.grib2 2026-04-25 08:47 833K
20260425T06Z_MSC_RDPS_RelativeHumidity_IsbL-0550_RLatLon0.09_PT023H.grib2 2026-04-25 08:47 858K
20260425T06Z_MSC_RDPS_RelativeHumidity_IsbL-0600_RLatLon0.09_PT023H.grib2 2026-04-25 08:47 877K
20260425T06Z_MSC_RDPS_RelativeHumidity_IsbL-0650_RLatLon0.09_PT023H.grib2 2026-04-25 08:47 891K
20260425T06Z_MSC_RDPS_RelativeHumidity_IsbL-0700_RLatLon0.09_PT023H.grib2 2026-04-25 08:47 912K
20260425T06Z_MSC_RDPS_RelativeHumidity_IsbL-0750_RLatLon0.09_PT023H.grib2 2026-04-25 08:47 952K
20260425T06Z_MSC_RDPS_RelativeHumidity_IsbL-0800_RLatLon0.09_PT023H.grib2 2026-04-25 08:47 1.0M
20260425T06Z_MSC_RDPS_RelativeHumidity_IsbL-0850_RLatLon0.09_PT023H.grib2 2026-04-25 08:47 1.0M
20260425T06Z_MSC_RDPS_RelativeHumidity_IsbL-0875_RLatLon0.09_PT023H.grib2 2026-04-25 08:47 1.1M
20260425T06Z_MSC_RDPS_RelativeHumidity_IsbL-0900_RLatLon0.09_PT023H.grib2 2026-04-25 08:47 1.1M
20260425T06Z_MSC_RDPS_RelativeHumidity_IsbL-0925_RLatLon0.09_PT023H.grib2 2026-04-25 08:47 1.1M
20260425T06Z_MSC_RDPS_RelativeHumidity_IsbL-0950_RLatLon0.09_PT023H.grib2 2026-04-25 08:47 1.1M
20260425T06Z_MSC_RDPS_RelativeHumidity_IsbL-0970_RLatLon0.09_PT023H.grib2 2026-04-25 08:47 1.0M
20260425T06Z_MSC_RDPS_RelativeHumidity_IsbL-0985_RLatLon0.09_PT023H.grib2 2026-04-25 08:47 1.0M
20260425T06Z_MSC_RDPS_RelativeHumidity_IsbL-1000_RLatLon0.09_PT023H.grib2 2026-04-25 08:47 1.0M
20260425T06Z_MSC_RDPS_RelativeHumidity_IsbL-1015_RLatLon0.09_PT023H.grib2 2026-04-25 08:47 1.0M
20260425T06Z_MSC_RDPS_Runoff-Accum_Sfc_RLatLon0.09_PT023H.grib2 2026-04-25 08:47 65K
20260425T06Z_MSC_RDPS_SWEATIndex_Sfc_RLatLon0.09_PT023H.grib2 2026-04-25 08:47 2.4M
20260425T06Z_MSC_RDPS_SeeingIndex_EAtm_RLatLon0.09_PT023H.grib2 2026-04-25 08:47 1.0M
20260425T06Z_MSC_RDPS_SensibleHeatNetFlux_Sfc_RLatLon0.09_PT023H.grib2 2026-04-25 08:47 371K
20260425T06Z_MSC_RDPS_ShowalterIndex_IsbL-0500_RLatLon0.09_PT023H.grib2 2026-04-25 08:47 2.6M
20260425T06Z_MSC_RDPS_SkyTransparencyIndex_EAtm_RLatLon0.09_PT023H.grib2 2026-04-25 08:47 691K
20260425T06Z_MSC_RDPS_Snow-Accum1h_Sfc_RLatLon0.09_PT023H.grib2 2026-04-25 08:47 504K
20260425T06Z_MSC_RDPS_Snow-Accum_Sfc_RLatLon0.09_PT023H.grib2 2026-04-25 08:47 837K
20260425T06Z_MSC_RDPS_SnowDensity_Sfc_RLatLon0.09_PT023H.grib2 2026-04-25 08:47 180K
20260425T06Z_MSC_RDPS_SnowDepth_Sfc_RLatLon0.09_PT023H.grib2 2026-04-25 08:47 728K
20260425T06Z_MSC_RDPS_SoilTemp_DBS-0to10cm_RLatLon0.09_PT023H.grib2 2026-04-25 08:47 221K
20260425T06Z_MSC_RDPS_SoilTemp_Sfc_RLatLon0.09_PT023H.grib2 2026-04-25 08:47 253K
20260425T06Z_MSC_RDPS_SoilVolumetricIceContent_Sfc_RLatLon0.09_PT023H.grib2 2026-04-25 08:47 169K
20260425T06Z_MSC_RDPS_SoilVolumetricWaterContent_DBS-0to10cm_RLatLon0.09_PT023H.grib2 2026-04-25 08:47 256K
20260425T06Z_MSC_RDPS_SoilVolumetricWaterContent_DBS-0to1cm_RLatLon0.09_PT023H.grib2 2026-04-25 08:47 339K
20260425T06Z_MSC_RDPS_SpecificHumidity_AGL-120m_RLatLon0.09_PT023H.grib2 2026-04-25 08:47 477K
20260425T06Z_MSC_RDPS_SpecificHumidity_AGL-2m_RLatLon0.09_PT023H.grib2 2026-04-25 08:47 637K
20260425T06Z_MSC_RDPS_SpecificHumidity_AGL-40m_RLatLon0.09_PT023H.grib2 2026-04-25 08:47 480K
20260425T06Z_MSC_RDPS_SpecificHumidity_AGL-80m_RLatLon0.09_PT023H.grib2 2026-04-25 08:47 477K
20260425T06Z_MSC_RDPS_SpecificHumidity_IsbL-0001_RLatLon0.09_PT023H.grib2 2026-04-25 08:47 338K
20260425T06Z_MSC_RDPS_SpecificHumidity_IsbL-0005_RLatLon0.09_PT023H.grib2 2026-04-25 08:47 358K
20260425T06Z_MSC_RDPS_SpecificHumidity_IsbL-0010_RLatLon0.09_PT023H.grib2 2026-04-25 08:47 399K
20260425T06Z_MSC_RDPS_SpecificHumidity_IsbL-0020_RLatLon0.09_PT023H.grib2 2026-04-25 08:47 390K
20260425T06Z_MSC_RDPS_SpecificHumidity_IsbL-0030_RLatLon0.09_PT023H.grib2 2026-04-25 08:47 482K
20260425T06Z_MSC_RDPS_SpecificHumidity_IsbL-0050_RLatLon0.09_PT023H.grib2 2026-04-25 08:47 484K
20260425T06Z_MSC_RDPS_SpecificHumidity_IsbL-0100_RLatLon0.09_PT023H.grib2 2026-04-25 08:47 455K
20260425T06Z_MSC_RDPS_SpecificHumidity_IsbL-0150_RLatLon0.09_PT023H.grib2 2026-04-25 08:47 457K
20260425T06Z_MSC_RDPS_SpecificHumidity_IsbL-0175_RLatLon0.09_PT023H.grib2 2026-04-25 08:47 553K
20260425T06Z_MSC_RDPS_SpecificHumidity_IsbL-0200_RLatLon0.09_PT023H.grib2 2026-04-25 08:47 559K
20260425T06Z_MSC_RDPS_SpecificHumidity_IsbL-0225_RLatLon0.09_PT023H.grib2 2026-04-25 08:47 459K
20260425T06Z_MSC_RDPS_SpecificHumidity_IsbL-0250_RLatLon0.09_PT023H.grib2 2026-04-25 08:47 571K
20260425T06Z_MSC_RDPS_SpecificHumidity_IsbL-0275_RLatLon0.09_PT023H.grib2 2026-04-25 08:47 486K
20260425T06Z_MSC_RDPS_SpecificHumidity_IsbL-0300_RLatLon0.09_PT023H.grib2 2026-04-25 08:47 584K
20260425T06Z_MSC_RDPS_SpecificHumidity_IsbL-0350_RLatLon0.09_PT023H.grib2 2026-04-25 08:47 551K
20260425T06Z_MSC_RDPS_SpecificHumidity_IsbL-0400_RLatLon0.09_PT023H.grib2 2026-04-25 08:47 531K
20260425T06Z_MSC_RDPS_SpecificHumidity_IsbL-0450_RLatLon0.09_PT023H.grib2 2026-04-25 08:47 581K
20260425T06Z_MSC_RDPS_SpecificHumidity_IsbL-0500_RLatLon0.09_PT023H.grib2 2026-04-25 08:47 523K
20260425T06Z_MSC_RDPS_SpecificHumidity_IsbL-0550_RLatLon0.09_PT023H.grib2 2026-04-25 08:47 583K
20260425T06Z_MSC_RDPS_SpecificHumidity_IsbL-0600_RLatLon0.09_PT023H.grib2 2026-04-25 08:47 649K
20260425T06Z_MSC_RDPS_SpecificHumidity_IsbL-0650_RLatLon0.09_PT023H.grib2 2026-04-25 08:47 560K
20260425T06Z_MSC_RDPS_SpecificHumidity_IsbL-0700_RLatLon0.09_PT023H.grib2 2026-04-25 08:47 601K
20260425T06Z_MSC_RDPS_SpecificHumidity_IsbL-0750_RLatLon0.09_PT023H.grib2 2026-04-25 08:47 654K
20260425T06Z_MSC_RDPS_SpecificHumidity_IsbL-0800_RLatLon0.09_PT023H.grib2 2026-04-25 08:47 730K
20260425T06Z_MSC_RDPS_SpecificHumidity_IsbL-0850_RLatLon0.09_PT023H.grib2 2026-04-25 08:47 798K
20260425T06Z_MSC_RDPS_SpecificHumidity_IsbL-0875_RLatLon0.09_PT023H.grib2 2026-04-25 08:47 822K
20260425T06Z_MSC_RDPS_SpecificHumidity_IsbL-0900_RLatLon0.09_PT023H.grib2 2026-04-25 08:47 833K
20260425T06Z_MSC_RDPS_SpecificHumidity_IsbL-0925_RLatLon0.09_PT023H.grib2 2026-04-25 08:47 833K
20260425T06Z_MSC_RDPS_SpecificHumidity_IsbL-0950_RLatLon0.09_PT023H.grib2 2026-04-25 08:47 828K
20260425T06Z_MSC_RDPS_SpecificHumidity_IsbL-0970_RLatLon0.09_PT023H.grib2 2026-04-25 08:47 674K
20260425T06Z_MSC_RDPS_SpecificHumidity_IsbL-0985_RLatLon0.09_PT023H.grib2 2026-04-25 08:47 665K
20260425T06Z_MSC_RDPS_SpecificHumidity_IsbL-1000_RLatLon0.09_PT023H.grib2 2026-04-25 08:47 656K
20260425T06Z_MSC_RDPS_SpecificHumidity_IsbL-1015_RLatLon0.09_PT023H.grib2 2026-04-25 08:47 647K
20260425T06Z_MSC_RDPS_SpecificHumidity_Sfc_RLatLon0.09_PT023H.grib2 2026-04-25 08:47 292K
20260425T06Z_MSC_RDPS_StormRelativeHelicity_EtaL-10000_RLatLon0.09_PT023H.grib2 2026-04-25 08:47 1.1M
20260425T06Z_MSC_RDPS_StormSeverityIndex_EtaL-10000_RLatLon0.09_PT023H.grib2 2026-04-25 08:47 1.2M
20260425T06Z_MSC_RDPS_Thickness_IsbL-0850to0700_RLatLon0.09_PT023H.grib2 2026-04-25 08:47 176K
20260425T06Z_MSC_RDPS_Thickness_IsbL-1000to0500_RLatLon0.09_PT023H.grib2 2026-04-25 08:47 200K
20260425T06Z_MSC_RDPS_Thickness_IsbL-1000to0850_RLatLon0.09_PT023H.grib2 2026-04-25 08:47 183K
20260425T06Z_MSC_RDPS_TotalCloudCover_Sfc_RLatLon0.09_PT023H.grib2 2026-04-25 08:47 673K
20260425T06Z_MSC_RDPS_TotalTotalsIndex_Sfc_RLatLon0.09_PT023H.grib2 2026-04-25 08:47 2.4M
20260425T06Z_MSC_RDPS_UVIndex-ClearSky_Sfc_RLatLon0.09_PT023H.grib2 2026-04-25 08:47 94K
20260425T06Z_MSC_RDPS_UVIndex_Sfc_RLatLon0.09_PT023H.grib2 2026-04-25 08:47 162K
20260425T06Z_MSC_RDPS_UpwardLongwaveRadiationFlux_NTAtm_RLatLon0.09_PT023H.grib2 2026-04-25 08:47 490K
20260425T06Z_MSC_RDPS_UpwardShortwaveRadiationFlux_NTAtm_RLatLon0.09_PT023H.grib2 2026-04-25 08:47 139K
20260425T06Z_MSC_RDPS_VerticalVelocity_IsbL-0250_RLatLon0.09_PT023H.grib2 2026-04-25 08:47 556K
20260425T06Z_MSC_RDPS_VerticalVelocity_IsbL-0500_RLatLon0.09_PT023H.grib2 2026-04-25 08:47 545K
20260425T06Z_MSC_RDPS_VerticalVelocity_IsbL-0700_RLatLon0.09_PT023H.grib2 2026-04-25 08:47 597K
20260425T06Z_MSC_RDPS_VerticalVelocity_IsbL-0850_RLatLon0.09_PT023H.grib2 2026-04-25 08:47 696K
20260425T06Z_MSC_RDPS_VerticalWindShear_EtaL-6500_RLatLon0.09_PT023H.grib2 2026-04-25 08:47 1.2M
20260425T06Z_MSC_RDPS_WindChill_Sfc_RLatLon0.09_PT023H.grib2 2026-04-25 08:47 1.2M
20260425T06Z_MSC_RDPS_WindDir_AGL-10m_RLatLon0.09_PT023H.grib2 2026-04-25 08:47 1.0M
20260425T06Z_MSC_RDPS_WindDir_AGL-120m_RLatLon0.09_PT023H.grib2 2026-04-25 08:47 614K
20260425T06Z_MSC_RDPS_WindDir_AGL-40m_RLatLon0.09_PT023H.grib2 2026-04-25 08:47 647K
20260425T06Z_MSC_RDPS_WindDir_AGL-80m_RLatLon0.09_PT023H.grib2 2026-04-25 08:47 627K
20260425T06Z_MSC_RDPS_WindDir_IsbL-0001_RLatLon0.09_PT023H.grib2 2026-04-25 08:47 276K
20260425T06Z_MSC_RDPS_WindDir_IsbL-0005_RLatLon0.09_PT023H.grib2 2026-04-25 08:47 374K
20260425T06Z_MSC_RDPS_WindDir_IsbL-0010_RLatLon0.09_PT023H.grib2 2026-04-25 08:47 401K
20260425T06Z_MSC_RDPS_WindDir_IsbL-0020_RLatLon0.09_PT023H.grib2 2026-04-25 08:47 420K
20260425T06Z_MSC_RDPS_WindDir_IsbL-0030_RLatLon0.09_PT023H.grib2 2026-04-25 08:47 431K
20260425T06Z_MSC_RDPS_WindDir_IsbL-0050_RLatLon0.09_PT023H.grib2 2026-04-25 08:47 448K
20260425T06Z_MSC_RDPS_WindDir_IsbL-0100_RLatLon0.09_PT023H.grib2 2026-04-25 08:47 440K
20260425T06Z_MSC_RDPS_WindDir_IsbL-0150_RLatLon0.09_PT023H.grib2 2026-04-25 08:47 430K
20260425T06Z_MSC_RDPS_WindDir_IsbL-0175_RLatLon0.09_PT023H.grib2 2026-04-25 08:47 438K
20260425T06Z_MSC_RDPS_WindDir_IsbL-0200_RLatLon0.09_PT023H.grib2 2026-04-25 08:47 448K
20260425T06Z_MSC_RDPS_WindDir_IsbL-0225_RLatLon0.09_PT023H.grib2 2026-04-25 08:47 449K
20260425T06Z_MSC_RDPS_WindDir_IsbL-0250_RLatLon0.09_PT023H.grib2 2026-04-25 08:47 448K
20260425T06Z_MSC_RDPS_WindDir_IsbL-0275_RLatLon0.09_PT023H.grib2 2026-04-25 08:47 472K
20260425T06Z_MSC_RDPS_WindDir_IsbL-0300_RLatLon0.09_PT023H.grib2 2026-04-25 08:47 475K
20260425T06Z_MSC_RDPS_WindDir_IsbL-0350_RLatLon0.09_PT023H.grib2 2026-04-25 08:47 504K
20260425T06Z_MSC_RDPS_WindDir_IsbL-0400_RLatLon0.09_PT023H.grib2 2026-04-25 08:47 521K
20260425T06Z_MSC_RDPS_WindDir_IsbL-0450_RLatLon0.09_PT023H.grib2 2026-04-25 08:47 533K
20260425T06Z_MSC_RDPS_WindDir_IsbL-0500_RLatLon0.09_PT023H.grib2 2026-04-25 08:47 549K
20260425T06Z_MSC_RDPS_WindDir_IsbL-0550_RLatLon0.09_PT023H.grib2 2026-04-25 08:47 566K
20260425T06Z_MSC_RDPS_WindDir_IsbL-0600_RLatLon0.09_PT023H.grib2 2026-04-25 08:47 600K
20260425T06Z_MSC_RDPS_WindDir_IsbL-0650_RLatLon0.09_PT023H.grib2 2026-04-25 08:47 644K
20260425T06Z_MSC_RDPS_WindDir_IsbL-0700_RLatLon0.09_PT023H.grib2 2026-04-25 08:47 690K
20260425T06Z_MSC_RDPS_WindDir_IsbL-0750_RLatLon0.09_PT023H.grib2 2026-04-25 08:47 752K
20260425T06Z_MSC_RDPS_WindDir_IsbL-0800_RLatLon0.09_PT023H.grib2 2026-04-25 08:47 820K
20260425T06Z_MSC_RDPS_WindDir_IsbL-0850_RLatLon0.09_PT023H.grib2 2026-04-25 08:47 892K
20260425T06Z_MSC_RDPS_WindDir_IsbL-0875_RLatLon0.09_PT023H.grib2 2026-04-25 08:47 914K
20260425T06Z_MSC_RDPS_WindDir_IsbL-0900_RLatLon0.09_PT023H.grib2 2026-04-25 08:47 925K
20260425T06Z_MSC_RDPS_WindDir_IsbL-0925_RLatLon0.09_PT023H.grib2 2026-04-25 08:47 932K
20260425T06Z_MSC_RDPS_WindDir_IsbL-0950_RLatLon0.09_PT023H.grib2 2026-04-25 08:47 926K
20260425T06Z_MSC_RDPS_WindDir_IsbL-0970_RLatLon0.09_PT023H.grib2 2026-04-25 08:47 931K
20260425T06Z_MSC_RDPS_WindDir_IsbL-0985_RLatLon0.09_PT023H.grib2 2026-04-25 08:47 942K
20260425T06Z_MSC_RDPS_WindDir_IsbL-1000_RLatLon0.09_PT023H.grib2 2026-04-25 08:47 957K
20260425T06Z_MSC_RDPS_WindDir_IsbL-1015_RLatLon0.09_PT023H.grib2 2026-04-25 08:47 973K
20260425T06Z_MSC_RDPS_WindGust-Max_AGL-10m_RLatLon0.09_PT023H.grib2 2026-04-25 08:47 949K
20260425T06Z_MSC_RDPS_WindGust-Min_AGL-10m_RLatLon0.09_PT023H.grib2 2026-04-25 08:47 965K
20260425T06Z_MSC_RDPS_WindGust_AGL-10m_RLatLon0.09_PT023H.grib2 2026-04-25 08:47 1.0M
20260425T06Z_MSC_RDPS_WindSpeed_AGL-10m_RLatLon0.09_PT023H.grib2 2026-04-25 08:47 843K
20260425T06Z_MSC_RDPS_WindSpeed_AGL-120m_RLatLon0.09_PT023H.grib2 2026-04-25 08:47 552K
20260425T06Z_MSC_RDPS_WindSpeed_AGL-40m_RLatLon0.09_PT023H.grib2 2026-04-25 08:47 545K
20260425T06Z_MSC_RDPS_WindSpeed_AGL-80m_RLatLon0.09_PT023H.grib2 2026-04-25 08:47 553K
20260425T06Z_MSC_RDPS_WindSpeed_IsbL-0001_RLatLon0.09_PT023H.grib2 2026-04-25 08:47 249K
20260425T06Z_MSC_RDPS_WindSpeed_IsbL-0005_RLatLon0.09_PT023H.grib2 2026-04-25 08:47 300K
20260425T06Z_MSC_RDPS_WindSpeed_IsbL-0010_RLatLon0.09_PT023H.grib2 2026-04-25 08:47 317K
20260425T06Z_MSC_RDPS_WindSpeed_IsbL-0020_RLatLon0.09_PT023H.grib2 2026-04-25 08:47 336K
20260425T06Z_MSC_RDPS_WindSpeed_IsbL-0030_RLatLon0.09_PT023H.grib2 2026-04-25 08:47 337K
20260425T06Z_MSC_RDPS_WindSpeed_IsbL-0050_RLatLon0.09_PT023H.grib2 2026-04-25 08:47 478K
20260425T06Z_MSC_RDPS_WindSpeed_IsbL-0100_RLatLon0.09_PT023H.grib2 2026-04-25 08:47 481K
20260425T06Z_MSC_RDPS_WindSpeed_IsbL-0150_RLatLon0.09_PT023H.grib2 2026-04-25 08:47 383K
20260425T06Z_MSC_RDPS_WindSpeed_IsbL-0175_RLatLon0.09_PT023H.grib2 2026-04-25 08:47 411K
20260425T06Z_MSC_RDPS_WindSpeed_IsbL-0200_RLatLon0.09_PT023H.grib2 2026-04-25 08:47 449K
20260425T06Z_MSC_RDPS_WindSpeed_IsbL-0225_RLatLon0.09_PT023H.grib2 2026-04-25 08:47 456K
20260425T06Z_MSC_RDPS_WindSpeed_IsbL-0250_RLatLon0.09_PT023H.grib2 2026-04-25 08:47 459K
20260425T06Z_MSC_RDPS_WindSpeed_IsbL-0275_RLatLon0.09_PT023H.grib2 2026-04-25 08:47 478K
20260425T06Z_MSC_RDPS_WindSpeed_IsbL-0300_RLatLon0.09_PT023H.grib2 2026-04-25 08:47 474K
20260425T06Z_MSC_RDPS_WindSpeed_IsbL-0350_RLatLon0.09_PT023H.grib2 2026-04-25 08:47 485K
20260425T06Z_MSC_RDPS_WindSpeed_IsbL-0400_RLatLon0.09_PT023H.grib2 2026-04-25 08:47 486K
20260425T06Z_MSC_RDPS_WindSpeed_IsbL-0450_RLatLon0.09_PT023H.grib2 2026-04-25 08:47 466K
20260425T06Z_MSC_RDPS_WindSpeed_IsbL-0500_RLatLon0.09_PT023H.grib2 2026-04-25 08:47 467K
20260425T06Z_MSC_RDPS_WindSpeed_IsbL-0550_RLatLon0.09_PT023H.grib2 2026-04-25 08:47 589K
20260425T06Z_MSC_RDPS_WindSpeed_IsbL-0600_RLatLon0.09_PT023H.grib2 2026-04-25 08:47 601K
20260425T06Z_MSC_RDPS_WindSpeed_IsbL-0650_RLatLon0.09_PT023H.grib2 2026-04-25 08:47 619K
20260425T06Z_MSC_RDPS_WindSpeed_IsbL-0700_RLatLon0.09_PT023H.grib2 2026-04-25 08:47 684K
20260425T06Z_MSC_RDPS_WindSpeed_IsbL-0750_RLatLon0.09_PT023H.grib2 2026-04-25 08:47 670K
20260425T06Z_MSC_RDPS_WindSpeed_IsbL-0800_RLatLon0.09_PT023H.grib2 2026-04-25 08:47 718K
20260425T06Z_MSC_RDPS_WindSpeed_IsbL-0850_RLatLon0.09_PT023H.grib2 2026-04-25 08:47 775K
20260425T06Z_MSC_RDPS_WindSpeed_IsbL-0875_RLatLon0.09_PT023H.grib2 2026-04-25 08:47 793K
20260425T06Z_MSC_RDPS_WindSpeed_IsbL-0900_RLatLon0.09_PT023H.grib2 2026-04-25 08:47 854K
20260425T06Z_MSC_RDPS_WindSpeed_IsbL-0925_RLatLon0.09_PT023H.grib2 2026-04-25 08:47 865K
20260425T06Z_MSC_RDPS_WindSpeed_IsbL-0950_RLatLon0.09_PT023H.grib2 2026-04-25 08:47 864K
20260425T06Z_MSC_RDPS_WindSpeed_IsbL-0970_RLatLon0.09_PT023H.grib2 2026-04-25 08:47 859K
20260425T06Z_MSC_RDPS_WindSpeed_IsbL-0985_RLatLon0.09_PT023H.grib2 2026-04-25 08:47 855K
20260425T06Z_MSC_RDPS_WindSpeed_IsbL-1000_RLatLon0.09_PT023H.grib2 2026-04-25 08:47 851K
20260425T06Z_MSC_RDPS_WindSpeed_IsbL-1015_RLatLon0.09_PT023H.grib2 2026-04-25 08:47 843K
20260425T06Z_MSC_RDPS_WindU_AGL-10m_RLatLon0.09_PT023H.grib2 2026-04-25 08:47 435K
20260425T06Z_MSC_RDPS_WindU_AGL-120m_RLatLon0.09_PT023H.grib2 2026-04-25 08:47 419K
20260425T06Z_MSC_RDPS_WindU_AGL-40m_RLatLon0.09_PT023H.grib2 2026-04-25 08:47 424K
20260425T06Z_MSC_RDPS_WindU_AGL-80m_RLatLon0.09_PT023H.grib2 2026-04-25 08:47 422K
20260425T06Z_MSC_RDPS_WindU_IsbL-0001_RLatLon0.09_PT023H.grib2 2026-04-25 08:47 291K
20260425T06Z_MSC_RDPS_WindU_IsbL-0005_RLatLon0.09_PT023H.grib2 2026-04-25 08:47 295K
20260425T06Z_MSC_RDPS_WindU_IsbL-0010_RLatLon0.09_PT023H.grib2 2026-04-25 08:47 311K
20260425T06Z_MSC_RDPS_WindU_IsbL-0020_RLatLon0.09_PT023H.grib2 2026-04-25 08:47 368K
20260425T06Z_MSC_RDPS_WindU_IsbL-0030_RLatLon0.09_PT023H.grib2 2026-04-25 08:47 366K
20260425T06Z_MSC_RDPS_WindU_IsbL-0050_RLatLon0.09_PT023H.grib2 2026-04-25 08:47 365K
20260425T06Z_MSC_RDPS_WindU_IsbL-0100_RLatLon0.09_PT023H.grib2 2026-04-25 08:47 438K
20260425T06Z_MSC_RDPS_WindU_IsbL-0150_RLatLon0.09_PT023H.grib2 2026-04-25 08:47 400K
20260425T06Z_MSC_RDPS_WindU_IsbL-0175_RLatLon0.09_PT023H.grib2 2026-04-25 08:47 426K
20260425T06Z_MSC_RDPS_WindU_IsbL-0200_RLatLon0.09_PT023H.grib2 2026-04-25 08:47 443K
20260425T06Z_MSC_RDPS_WindU_IsbL-0225_RLatLon0.09_PT023H.grib2 2026-04-25 08:47 348K
20260425T06Z_MSC_RDPS_WindU_IsbL-0250_RLatLon0.09_PT023H.grib2 2026-04-25 08:47 348K
20260425T06Z_MSC_RDPS_WindU_IsbL-0275_RLatLon0.09_PT023H.grib2 2026-04-25 08:47 364K
20260425T06Z_MSC_RDPS_WindU_IsbL-0300_RLatLon0.09_PT023H.grib2 2026-04-25 08:47 360K
20260425T06Z_MSC_RDPS_WindU_IsbL-0350_RLatLon0.09_PT023H.grib2 2026-04-25 08:47 368K
20260425T06Z_MSC_RDPS_WindU_IsbL-0400_RLatLon0.09_PT023H.grib2 2026-04-25 08:47 475K
20260425T06Z_MSC_RDPS_WindU_IsbL-0450_RLatLon0.09_PT023H.grib2 2026-04-25 08:47 473K
20260425T06Z_MSC_RDPS_WindU_IsbL-0500_RLatLon0.09_PT023H.grib2 2026-04-25 08:47 473K
20260425T06Z_MSC_RDPS_WindU_IsbL-0550_RLatLon0.09_PT023H.grib2 2026-04-25 08:47 476K
20260425T06Z_MSC_RDPS_WindU_IsbL-0600_RLatLon0.09_PT023H.grib2 2026-04-25 08:47 487K
20260425T06Z_MSC_RDPS_WindU_IsbL-0650_RLatLon0.09_PT023H.grib2 2026-04-25 08:47 504K
20260425T06Z_MSC_RDPS_WindU_IsbL-0700_RLatLon0.09_PT023H.grib2 2026-04-25 08:47 522K
20260425T06Z_MSC_RDPS_WindU_IsbL-0750_RLatLon0.09_PT023H.grib2 2026-04-25 08:47 536K
20260425T06Z_MSC_RDPS_WindU_IsbL-0800_RLatLon0.09_PT023H.grib2 2026-04-25 08:47 589K
20260425T06Z_MSC_RDPS_WindU_IsbL-0850_RLatLon0.09_PT023H.grib2 2026-04-25 08:47 637K
20260425T06Z_MSC_RDPS_WindU_IsbL-0875_RLatLon0.09_PT023H.grib2 2026-04-25 08:47 652K
20260425T06Z_MSC_RDPS_WindU_IsbL-0900_RLatLon0.09_PT023H.grib2 2026-04-25 08:47 662K
20260425T06Z_MSC_RDPS_WindU_IsbL-0925_RLatLon0.09_PT023H.grib2 2026-04-25 08:47 669K
20260425T06Z_MSC_RDPS_WindU_IsbL-0950_RLatLon0.09_PT023H.grib2 2026-04-25 08:47 659K
20260425T06Z_MSC_RDPS_WindU_IsbL-0970_RLatLon0.09_PT023H.grib2 2026-04-25 08:47 656K
20260425T06Z_MSC_RDPS_WindU_IsbL-0985_RLatLon0.09_PT023H.grib2 2026-04-25 08:47 792K
20260425T06Z_MSC_RDPS_WindU_IsbL-1000_RLatLon0.09_PT023H.grib2 2026-04-25 08:47 788K
20260425T06Z_MSC_RDPS_WindU_IsbL-1015_RLatLon0.09_PT023H.grib2 2026-04-25 08:47 783K
20260425T06Z_MSC_RDPS_WindV_AGL-10m_RLatLon0.09_PT023H.grib2 2026-04-25 08:47 430K
20260425T06Z_MSC_RDPS_WindV_AGL-120m_RLatLon0.09_PT023H.grib2 2026-04-25 08:47 418K
20260425T06Z_MSC_RDPS_WindV_AGL-40m_RLatLon0.09_PT023H.grib2 2026-04-25 08:47 421K
20260425T06Z_MSC_RDPS_WindV_AGL-80m_RLatLon0.09_PT023H.grib2 2026-04-25 08:47 420K
20260425T06Z_MSC_RDPS_WindV_IsbL-0001_RLatLon0.09_PT023H.grib2 2026-04-25 08:47 291K
20260425T06Z_MSC_RDPS_WindV_IsbL-0005_RLatLon0.09_PT023H.grib2 2026-04-25 08:47 336K
20260425T06Z_MSC_RDPS_WindV_IsbL-0010_RLatLon0.09_PT023H.grib2 2026-04-25 08:47 311K
20260425T06Z_MSC_RDPS_WindV_IsbL-0020_RLatLon0.09_PT023H.grib2 2026-04-25 08:47 368K
20260425T06Z_MSC_RDPS_WindV_IsbL-0030_RLatLon0.09_PT023H.grib2 2026-04-25 08:47 328K
20260425T06Z_MSC_RDPS_WindV_IsbL-0050_RLatLon0.09_PT023H.grib2 2026-04-25 08:47 360K
20260425T06Z_MSC_RDPS_WindV_IsbL-0100_RLatLon0.09_PT023H.grib2 2026-04-25 08:47 336K
20260425T06Z_MSC_RDPS_WindV_IsbL-0150_RLatLon0.09_PT023H.grib2 2026-04-25 08:47 396K
20260425T06Z_MSC_RDPS_WindV_IsbL-0175_RLatLon0.09_PT023H.grib2 2026-04-25 08:47 423K
20260425T06Z_MSC_RDPS_WindV_IsbL-0200_RLatLon0.09_PT023H.grib2 2026-04-25 08:47 341K
20260425T06Z_MSC_RDPS_WindV_IsbL-0225_RLatLon0.09_PT023H.grib2 2026-04-25 08:47 345K
20260425T06Z_MSC_RDPS_WindV_IsbL-0250_RLatLon0.09_PT023H.grib2 2026-04-25 08:47 346K
20260425T06Z_MSC_RDPS_WindV_IsbL-0275_RLatLon0.09_PT023H.grib2 2026-04-25 08:47 362K
20260425T06Z_MSC_RDPS_WindV_IsbL-0300_RLatLon0.09_PT023H.grib2 2026-04-25 08:47 356K
20260425T06Z_MSC_RDPS_WindV_IsbL-0350_RLatLon0.09_PT023H.grib2 2026-04-25 08:47 365K
20260425T06Z_MSC_RDPS_WindV_IsbL-0400_RLatLon0.09_PT023H.grib2 2026-04-25 08:47 366K
20260425T06Z_MSC_RDPS_WindV_IsbL-0450_RLatLon0.09_PT023H.grib2 2026-04-25 08:47 365K
20260425T06Z_MSC_RDPS_WindV_IsbL-0500_RLatLon0.09_PT023H.grib2 2026-04-25 08:47 469K
20260425T06Z_MSC_RDPS_WindV_IsbL-0550_RLatLon0.09_PT023H.grib2 2026-04-25 08:47 472K
20260425T06Z_MSC_RDPS_WindV_IsbL-0600_RLatLon0.09_PT023H.grib2 2026-04-25 08:47 482K
20260425T06Z_MSC_RDPS_WindV_IsbL-0650_RLatLon0.09_PT023H.grib2 2026-04-25 08:47 498K
20260425T06Z_MSC_RDPS_WindV_IsbL-0700_RLatLon0.09_PT023H.grib2 2026-04-25 08:47 517K
20260425T06Z_MSC_RDPS_WindV_IsbL-0750_RLatLon0.09_PT023H.grib2 2026-04-25 08:47 543K
20260425T06Z_MSC_RDPS_WindV_IsbL-0800_RLatLon0.09_PT023H.grib2 2026-04-25 08:47 572K
20260425T06Z_MSC_RDPS_WindV_IsbL-0850_RLatLon0.09_PT023H.grib2 2026-04-25 08:47 632K
20260425T06Z_MSC_RDPS_WindV_IsbL-0875_RLatLon0.09_PT023H.grib2 2026-04-25 08:47 647K
20260425T06Z_MSC_RDPS_WindV_IsbL-0900_RLatLon0.09_PT023H.grib2 2026-04-25 08:47 657K
20260425T06Z_MSC_RDPS_WindV_IsbL-0925_RLatLon0.09_PT023H.grib2 2026-04-25 08:47 664K
20260425T06Z_MSC_RDPS_WindV_IsbL-0950_RLatLon0.09_PT023H.grib2 2026-04-25 08:47 654K
20260425T06Z_MSC_RDPS_WindV_IsbL-0970_RLatLon0.09_PT023H.grib2 2026-04-25 08:47 653K
20260425T06Z_MSC_RDPS_WindV_IsbL-0985_RLatLon0.09_PT023H.grib2 2026-04-25 08:47 789K
20260425T06Z_MSC_RDPS_WindV_IsbL-1000_RLatLon0.09_PT023H.grib2 2026-04-25 08:47 784K
20260425T06Z_MSC_RDPS_WindV_IsbL-1015_RLatLon0.09_PT023H.grib2 2026-04-25 08:47 777K